User: anonymous   Login
Location: Gleizolles
(44.4833°N, 6.7667°E)
Time: 08:53:45
(UTC+00:00)
Language:

METEOR M2 - Orbit

View from above orbital plane
View from above orbital plane
View from above satellite
View from above satellite

Ground track
Ground track

The orbit data is extracted from the following two-line orbital elements,

1 40069U 14037A   24205.92718187  .00000417  00000-0  21127-3 0  9998
2 40069  98.4379 198.5259 0004558 247.5832 112.4863 14.21002572520841
Epoch (UTC): 23 July 2024 22:15:08
Eccentricity: 0.0004558
inclination: 98.4379°
perigee height: 818 km
apogee height: 825 km
right ascension of ascending node: 198.5259°
argument of perigee: 247.5832°
revolutions per day: 14.21002572
mean anomaly at epoch: 112.4863°
orbit number at epoch: 52084

The dashed part of the orbit path shows where the satellite is in the earth's shadow,  

DLR